Time,TemperatureF,DewpointF,PressureIn,WindDirection,WindDirectionDegrees,WindSpeedMPH,WindSpeedGustMPH,Humidity,HourlyPrecipIn,Conditions,Clouds,dailyrainin,SoftwareType,DateUTC
2013-05-16 00:01:00,52.2,45.5,29.61,ESE,113,1.1,3.4,78,0.00,,,0.00,WUHU216HW,2013-05-16 04:01:00,
2013-05-16 00:06:00,52.0,45.4,29.61,SE,135,3.1,3.1,78,0.00,,,0.00,WUHU216HW,2013-05-16 04:06:00,
2013-05-16 00:11:00,52.0,45.7,29.61,SE,135,3.6,4.0,79,0.00,,,0.00,WUHU216HW,2013-05-16 04:11:00,
2013-05-16 00:16:00,51.8,45.5,29.60,SE,135,4.0,4.7,79,0.00,,,0.00,WUHU216HW,2013-05-16 04:16:00,
2013-05-16 00:21:00,51.8,45.5,29.60,SE,135,2.5,4.7,79,0.00,,,0.00,WUHU216HW,2013-05-16 04:21:00,
2013-05-16 00:26:00,51.7,45.4,29.61,SW,225,1.1,4.0,79,0.00,,,0.00,WUHU216HW,2013-05-16 04:26:00,
2013-05-16 00:31:00,51.3,45.4,29.61,WSW,248,0.4,3.1,80,0.00,,,0.00,WUHU216HW,2013-05-16 04:31:00,
2013-05-16 00:36:00,50.8,44.5,29.61,West,270,1.1,2.0,79,0.00,,,0.00,WUHU216HW,2013-05-16 04:36:00,
2013-05-16 00:41:00,50.4,44.5,29.61,WNW,293,0.9,1.6,80,0.00,,,0.00,WUHU216HW,2013-05-16 04:41:00,
2013-05-16 00:46:00,50.4,44.5,29.61,WNW,293,0.0,1.6,80,0.00,,,0.00,WUHU216HW,2013-05-16 04:46:00,
2013-05-16 00:51:00,50.4,44.5,29.61,WNW,293,0.0,0.0,80,0.00,,,0.00,WUHU216HW,2013-05-16 04:51:00,
2013-05-16 00:59:00,50.0,44.4,29.61,SW,225,0.0,0.0,81,0.00,,,0.00,WUHU216HW,2013-05-16 04:59:00,
2013-05-16 01:04:00,49.9,44.2,29.62,SW,225,0.0,0.0,81,0.00,,,0.00,WUHU216HW,2013-05-16 05:04:00,
2013-05-16 01:09:00,49.9,44.2,29.61,SW,225,0.0,0.0,81,0.00,,,0.00,WUHU216HW,2013-05-16 05:09:00,
2013-05-16 01:14:00,49.7,44.0,29.61,SE,135,0.4,0.4,81,0.00,,,0.00,WUHU216HW,2013-05-16 05:14:00,
2013-05-16 01:19:00,49.7,44.0,29.61,SE,135,1.3,2.7,81,0.00,,,0.00,WUHU216HW,2013-05-16 05:19:00,
2013-05-16 01:24:00,49.7,44.4,29.61,NNW,338,0.2,2.7,82,0.00,,,0.00,WUHU216HW,2013-05-16 05:24:00,
2013-05-16 01:29:00,49.7,44.0,29.61,ESE,113,1.6,1.6,81,0.00,,,0.00,WUHU216HW,2013-05-16 05:29:00,
2013-05-16 01:34:00,49.5,43.8,29.61,ESE,113,4.0,4.0,81,0.00,,,0.00,WUHU216HW,2013-05-16 05:34:00,
2013-05-16 01:39:00,49.3,44.0,29.61,SE,135,3.8,4.0,82,0.00,,,0.00,WUHU216HW,2013-05-16 05:39:00,
2013-05-16 01:44:00,49.3,44.0,29.61,ESE,113,3.4,4.5,82,0.00,,,0.00,WUHU216HW,2013-05-16 05:44:00,
2013-05-16 01:49:00,49.3,44.0,29.61,SE,135,2.5,4.5,82,0.00,,,0.00,WUHU216HW,2013-05-16 05:49:00,
2013-05-16 01:54:00,49.5,44.2,29.62,WSW,248,0.4,2.9,82,0.00,,,0.00,WUHU216HW,2013-05-16 05:54:00,
2013-05-16 01:59:00,49.3,44.0,29.62,West,270,0.0,1.3,82,0.00,,,0.00,WUHU216HW,2013-05-16 05:59:00,
2013-05-16 02:04:00,49.1,43.8,29.62,West,270,0.0,0.4,82,0.00,,,0.00,WUHU216HW,2013-05-16 06:04:00,
2013-05-16 02:09:00,49.0,43.7,29.62,NW,315,0.4,0.9,82,0.00,,,0.00,WUHU216HW,2013-05-16 06:09:00,
2013-05-16 02:14:00,48.6,43.3,29.62,West,270,0.0,0.9,82,0.00,,,0.00,WUHU216HW,2013-05-16 06:14:00,
2013-05-16 02:19:00,48.4,43.1,29.62,WNW,293,0.0,0.0,82,0.00,,,0.00,WUHU216HW,2013-05-16 06:19:00,
2013-05-16 02:24:00,48.2,42.7,29.62,ESE,113,2.5,2.5,81,0.00,,,0.00,WUHU216HW,2013-05-16 06:24:00,
2013-05-16 02:29:00,47.9,41.9,29.62,ESE,113,3.1,3.1,80,0.00,,,0.00,WUHU216HW,2013-05-16 06:29:00,
2013-05-16 02:34:00,47.3,41.5,29.61,ESE,113,0.2,3.1,80,0.00,,,0.00,WUHU216HW,2013-05-16 06:34:00,
2013-05-16 02:39:00,47.2,41.3,29.61,ESE,113,2.0,2.2,80,0.00,,,0.00,WUHU216HW,2013-05-16 06:39:00,
2013-05-16 02:44:00,47.0,41.5,29.61,ESE,113,1.8,2.5,81,0.00,,,0.00,WUHU216HW,2013-05-16 06:44:00,
2013-05-16 02:49:00,47.0,41.5,29.61,East,90,0.0,2.5,81,0.00,,,0.00,WUHU216HW,2013-05-16 06:49:00,
2013-05-16 02:54:00,47.2,41.7,29.61,SE,135,2.5,2.5,81,0.00,,,0.00,WUHU216HW,2013-05-16 06:54:00,
2013-05-16 02:59:00,47.2,41.9,29.61,ESE,113,1.1,2.5,82,0.00,,,0.00,WUHU216HW,2013-05-16 06:59:00,
2013-05-16 03:04:00,47.0,41.8,29.61,East,90,0.0,2.5,82,0.00,,,0.00,WUHU216HW,2013-05-16 07:04:00,
2013-05-16 03:09:00,46.8,41.3,29.61,SE,135,0.9,1.6,81,0.00,,,0.00,WUHU216HW,2013-05-16 07:09:00,
2013-05-16 03:14:00,46.6,41.1,29.61,ESE,113,1.8,2.5,81,0.00,,,0.00,WUHU216HW,2013-05-16 07:14:00,
2013-05-16 03:19:00,46.4,41.0,29.61,ESE,113,0.7,2.5,81,0.00,,,0.00,WUHU216HW,2013-05-16 07:19:00,
2013-05-16 03:24:00,46.3,40.8,29.62,SSE,158,0.0,1.6,81,0.00,,,0.00,WUHU216HW,2013-05-16 07:24:00,
2013-05-16 03:34:00,46.3,41.1,29.62,ESE,113,1.1,1.1,82,0.00,,,0.00,WUHU216HW,2013-05-16 07:34:00,
2013-05-16 03:39:00,46.3,41.1,29.62,WNW,293,0.9,1.8,82,0.00,,,0.00,WUHU216HW,2013-05-16 07:39:00,
2013-05-16 03:44:00,46.3,41.4,29.62,ESE,113,1.8,2.0,83,0.00,,,0.00,WUHU216HW,2013-05-16 07:44:00,
2013-05-16 03:49:00,46.3,41.4,29.62,ESE,113,1.1,2.0,83,0.00,,,0.00,WUHU216HW,2013-05-16 07:49:00,
2013-05-16 03:54:00,46.1,41.0,29.62,East,90,1.3,2.0,82,0.00,,,0.00,WUHU216HW,2013-05-16 07:54:00,
2013-05-16 03:59:00,45.7,40.6,29.62,ESE,113,2.0,2.0,82,0.00,,,0.00,WUHU216HW,2013-05-16 07:59:00,
2013-05-16 04:04:00,45.7,40.6,29.61,ESE,113,1.6,2.7,82,0.00,,,0.00,WUHU216HW,2013-05-16 08:04:00,
2013-05-16 04:09:00,45.5,40.4,29.62,East,90,1.8,2.7,82,0.00,,,0.00,WUHU216HW,2013-05-16 08:09:00,
2013-05-16 04:14:00,45.2,39.7,29.62,ENE,68,1.6,2.5,81,0.00,,,0.00,WUHU216HW,2013-05-16 08:14:00,
2013-05-16 04:19:00,45.0,39.5,29.61,ESE,113,2.5,2.7,81,0.00,,,0.00,WUHU216HW,2013-05-16 08:19:00,
2013-05-16 04:24:00,44.8,39.3,29.62,ESE,113,2.2,2.7,81,0.00,,,0.00,WUHU216HW,2013-05-16 08:24:00,
2013-05-16 04:29:00,44.5,39.0,29.62,SE,135,2.7,3.4,81,0.00,,,0.00,WUHU216HW,2013-05-16 08:29:00,
2013-05-16 04:34:00,44.3,38.8,29.62,East,90,2.2,3.4,81,0.00,,,0.00,WUHU216HW,2013-05-16 08:34:00,
2013-05-16 04:39:00,44.3,39.2,29.61,ESE,113,2.5,3.6,82,0.00,,,0.00,WUHU216HW,2013-05-16 08:39:00,
2013-05-16 04:44:00,44.5,39.6,29.62,SE,135,4.0,4.5,83,0.00,,,0.00,WUHU216HW,2013-05-16 08:44:00,
2013-05-16 04:49:00,44.8,40.0,29.62,ESE,113,3.4,4.5,83,0.00,,,0.00,WUHU216HW,2013-05-16 08:49:00,
2013-05-16 04:54:00,45.4,40.5,29.62,ESE,113,2.9,4.5,83,0.00,,,0.00,WUHU216HW,2013-05-16 08:54:00,
2013-05-16 04:59:00,45.7,40.9,29.62,ESE,113,4.0,4.0,83,0.00,,,0.00,WUHU216HW,2013-05-16 08:59:00,
2013-05-16 05:04:00,45.9,41.0,29.62,SE,135,3.1,4.0,83,0.00,,,0.00,WUHU216HW,2013-05-16 09:04:00,
2013-05-16 05:09:00,46.1,41.0,29.62,ESE,113,2.9,4.0,82,0.00,,,0.00,WUHU216HW,2013-05-16 09:09:00,
2013-05-16 05:14:00,46.3,40.8,29.62,SE,135,4.7,4.7,81,0.00,,,0.00,WUHU216HW,2013-05-16 09:14:00,
2013-05-16 05:19:00,46.1,40.6,29.62,SE,135,2.9,4.9,81,0.00,,,0.00,WUHU216HW,2013-05-16 09:19:00,
2013-05-16 05:24:00,46.1,40.6,29.62,SE,135,2.9,4.9,81,0.00,,,0.00,WUHU216HW,2013-05-16 09:24:00,
2013-05-16 05:29:00,46.1,40.6,29.63,SE,135,4.3,4.3,81,0.00,,,0.00,WUHU216HW,2013-05-16 09:29:00,
2013-05-16 05:34:00,46.1,40.6,29.63,SE,135,3.1,4.3,81,0.00,,,0.00,WUHU216HW,2013-05-16 09:34:00,
2013-05-16 05:39:00,46.4,41.0,29.63,SE,135,3.6,4.0,81,0.00,,,0.00,WUHU216HW,2013-05-16 09:39:00,
2013-05-16 05:44:00,46.6,41.5,29.63,SE,135,3.4,4.0,82,0.00,,,0.00,WUHU216HW,2013-05-16 09:44:00,
2013-05-16 05:49:00,46.8,41.3,29.63,SE,135,2.7,4.0,81,0.00,,,0.00,WUHU216HW,2013-05-16 09:49:00,
2013-05-16 05:54:00,47.2,41.7,29.64,ESE,113,2.9,4.0,81,0.00,,,0.00,WUHU216HW,2013-05-16 09:54:00,
2013-05-16 05:59:00,47.2,41.7,29.64,SE,135,3.4,4.0,81,0.00,,,0.00,WUHU216HW,2013-05-16 09:59:00,
2013-05-16 06:04:00,47.2,41.7,29.63,SE,135,4.7,4.7,81,0.00,,,0.00,WUHU216HW,2013-05-16 10:04:00,
2013-05-16 06:09:00,47.5,41.9,29.64,SE,135,4.0,4.7,81,0.00,,,0.00,WUHU216HW,2013-05-16 10:09:00,
2013-05-16 06:14:00,47.7,42.1,29.64,SE,135,2.5,4.0,81,0.00,,,0.00,WUHU216HW,2013-05-16 10:14:00,
2013-05-16 06:19:00,47.9,41.9,29.64,SE,135,3.4,4.0,80,0.00,,,0.00,WUHU216HW,2013-05-16 10:19:00,
2013-05-16 06:24:00,48.1,42.1,29.64,SE,135,2.7,4.0,80,0.00,,,0.00,WUHU216HW,2013-05-16 10:24:00,
2013-05-16 06:29:00,48.4,42.9,29.64,SE,135,2.7,3.4,81,0.00,,,0.00,WUHU216HW,2013-05-16 10:29:00,
2013-05-16 06:34:00,48.6,43.0,29.64,SE,135,4.0,4.3,81,0.00,,,0.00,WUHU216HW,2013-05-16 10:34:00,
2013-05-16 06:39:00,48.8,43.2,29.64,SE,135,3.1,4.7,81,0.00,,,0.00,WUHU216HW,2013-05-16 10:39:00,
2013-05-16 06:44:00,49.1,43.2,29.64,SE,135,4.7,4.7,80,0.00,,,0.00,WUHU216HW,2013-05-16 10:44:00,
2013-05-16 06:49:00,49.5,43.6,29.64,SE,135,3.4,5.4,80,0.00,,,0.00,WUHU216HW,2013-05-16 10:49:00,
2013-05-16 06:54:00,49.9,43.9,29.64,SE,135,2.5,5.4,80,0.00,,,0.00,WUHU216HW,2013-05-16 10:54:00,
2013-05-16 06:59:00,50.0,44.1,29.64,ESE,113,4.3,4.7,80,0.00,,,0.00,WUHU216HW,2013-05-16 10:59:00,
2013-05-16 07:04:00,50.4,44.1,29.64,East,90,6.3,6.3,79,0.00,,,0.00,WUHU216HW,2013-05-16 11:04:00,
2013-05-16 07:09:00,50.9,44.6,29.64,ESE,113,5.8,6.3,79,0.00,,,0.00,WUHU216HW,2013-05-16 11:09:00,
2013-05-16 07:14:00,51.3,44.6,29.64,ESE,113,4.0,6.7,78,0.00,,,0.00,WUHU216HW,2013-05-16 11:14:00,
2013-05-16 07:19:00,51.7,45.0,29.64,SE,135,3.4,6.7,78,0.00,,,0.00,WUHU216HW,2013-05-16 11:19:00,
2013-05-16 07:24:00,52.2,45.5,29.64,ESE,113,5.1,5.1,78,0.00,,,0.00,WUHU216HW,2013-05-16 11:24:00,
2013-05-16 07:29:00,52.6,45.9,29.64,ESE,113,5.4,5.4,78,0.00,,,0.00,WUHU216HW,2013-05-16 11:29:00,
2013-05-16 07:34:00,52.9,45.9,29.64,ESE,113,4.0,5.4,77,0.00,,,0.00,WUHU216HW,2013-05-16 11:34:00,
2013-05-16 07:39:00,53.5,46.4,29.64,SE,135,3.1,5.1,77,0.00,,,0.00,WUHU216HW,2013-05-16 11:39:00,
2013-05-16 07:44:00,53.8,46.5,29.65,SE,135,5.6,5.6,76,0.00,,,0.00,WUHU216HW,2013-05-16 11:44:00,
2013-05-16 07:49:00,54.4,47.0,29.64,ESE,113,5.4,6.3,76,0.00,,,0.00,WUHU216HW,2013-05-16 11:49:00,
2013-05-16 07:54:00,54.7,47.3,29.64,SE,135,4.5,6.3,76,0.00,,,0.00,WUHU216HW,2013-05-16 11:54:00,
2013-05-16 07:59:00,55.1,47.6,29.64,ESE,113,3.6,4.5,76,0.00,,,0.00,WUHU216HW,2013-05-16 11:59:00,
2013-05-16 08:04:00,55.8,48.3,29.65,SE,135,2.2,3.6,76,0.00,,,0.00,WUHU216HW,2013-05-16 12:04:00,
2013-05-16 08:09:00,56.2,48.3,29.64,SE,135,3.6,4.0,75,0.00,,,0.00,WUHU216HW,2013-05-16 12:09:00,
2013-05-16 08:14:00,56.9,49.0,29.64,ENE,68,4.0,4.0,75,0.00,,,0.00,WUHU216HW,2013-05-16 12:14:00,
2013-05-16 08:19:00,57.4,48.8,29.64,SE,135,2.0,4.3,73,0.00,,,0.00,WUHU216HW,2013-05-16 12:19:00,
2013-05-16 08:24:00,58.1,49.1,29.64,SE,135,4.3,4.3,72,0.00,,,0.00,WUHU216HW,2013-05-16 12:24:00,
2013-05-16 08:29:00,59.0,48.9,29.64,East,90,3.4,4.7,69,0.00,,,0.00,WUHU216HW,2013-05-16 12:29:00,
2013-05-16 08:34:00,59.6,49.1,29.64,East,90,4.0,4.7,68,0.00,,,0.00,WUHU216HW,2013-05-16 12:34:00,
2013-05-16 08:39:00,60.1,49.1,29.64,SE,135,4.5,5.1,67,0.00,,,0.00,WUHU216HW,2013-05-16 12:39:00,
2013-05-16 08:44:00,60.8,49.5,29.64,SE,135,3.8,5.1,66,0.00,,,0.00,WUHU216HW,2013-05-16 12:44:00,
2013-05-16 08:49:00,61.4,49.5,29.64,SE,135,3.4,5.8,65,0.00,,,0.00,WUHU216HW,2013-05-16 12:49:00,
2013-05-16 08:54:00,62.1,49.8,29.64,ESE,113,5.4,5.8,64,0.00,,,0.00,WUHU216HW,2013-05-16 12:54:00,
2013-05-16 08:59:00,62.3,50.0,29.64,SE,135,4.9,5.6,64,0.00,,,0.00,WUHU216HW,2013-05-16 12:59:00,
2013-05-16 09:04:00,63.2,49.1,29.64,SE,135,5.1,6.9,60,0.00,,,0.00,WUHU216HW,2013-05-16 13:04:00,
2013-05-16 09:09:00,63.5,49.4,29.64,SE,135,5.1,6.9,60,0.00,,,0.00,WUHU216HW,2013-05-16 13:09:00,
2013-05-16 09:14:00,63.9,48.8,29.64,SSW,203,2.5,6.9,58,0.00,,,0.00,WUHU216HW,2013-05-16 13:14:00,
2013-05-16 09:19:00,64.3,47.6,29.64,SW,225,1.8,6.3,55,0.00,,,0.00,WUHU216HW,2013-05-16 13:19:00,
2013-05-16 09:24:00,64.4,47.4,29.64,WSW,248,1.8,3.1,54,0.00,,,0.00,WUHU216HW,2013-05-16 13:24:00,
2013-05-16 09:29:00,64.6,47.5,29.64,SE,135,6.0,6.0,54,0.00,,,0.00,WUHU216HW,2013-05-16 13:29:00,
2013-05-16 09:34:00,65.2,48.1,29.64,SE,135,2.9,6.3,54,0.00,,,0.00,WUHU216HW,2013-05-16 13:34:00,
2013-05-16 09:39:00,65.9,48.8,29.64,WSW,248,1.6,6.3,54,0.00,,,0.00,WUHU216HW,2013-05-16 13:39:00,
2013-05-16 09:44:00,66.4,48.8,29.64,SE,135,4.7,5.6,53,0.00,,,0.00,WUHU216HW,2013-05-16 13:44:00,
2013-05-16 09:49:00,67.0,48.8,29.63,SE,135,2.9,5.4,52,0.00,,,0.00,WUHU216HW,2013-05-16 13:49:00,
2013-05-16 09:54:00,67.3,48.6,29.63,East,90,1.1,5.4,51,0.00,,,0.00,WUHU216HW,2013-05-16 13:54:00,
2013-05-16 09:59:00,67.7,48.4,29.63,SSE,158,2.5,3.4,50,0.00,,,0.00,WUHU216HW,2013-05-16 13:59:00,
2013-05-16 10:04:00,68.0,48.2,29.63,SSE,158,3.4,5.1,49,0.00,,,0.00,WUHU216HW,2013-05-16 14:04:00,
2013-05-16 10:09:00,68.6,48.1,29.62,WSW,248,2.5,5.1,48,0.00,,,0.00,WUHU216HW,2013-05-16 14:09:00,
2013-05-16 10:14:00,68.8,44.6,29.63,SSE,158,1.6,3.1,42,0.00,,,0.00,WUHU216HW,2013-05-16 14:14:00,
2013-05-16 10:19:00,68.8,46.4,29.62,WSW,248,2.5,3.1,45,0.00,,,0.00,WUHU216HW,2013-05-16 14:19:00,
2013-05-16 10:24:00,69.3,46.4,29.62,West,270,2.0,2.5,44,0.00,,,0.00,WUHU216HW,2013-05-16 14:24:00,
2013-05-16 10:29:00,69.5,42.7,29.62,WSW,248,2.9,2.9,38,0.00,,,0.00,WUHU216HW,2013-05-16 14:29:00,
2013-05-16 10:34:00,68.8,42.0,29.62,WSW,248,4.7,7.2,38,0.00,,,0.00,WUHU216HW,2013-05-16 14:34:00,
2013-05-16 10:39:00,67.3,42.2,29.63,West,270,0.4,7.2,40,0.00,,,0.00,WUHU216HW,2013-05-16 14:39:00,
2013-05-16 10:44:00,67.1,41.3,29.63,WSW,248,0.9,3.8,39,0.00,,,0.00,WUHU216HW,2013-05-16 14:44:00,
2013-05-16 10:49:00,67.7,42.5,29.63,South,180,1.8,2.5,40,0.00,,,0.00,WUHU216HW,2013-05-16 14:49:00,
2013-05-16 10:54:00,68.0,41.4,29.63,WSW,248,6.9,6.9,38,0.00,,,0.00,WUHU216HW,2013-05-16 14:54:00,
2013-05-16 10:59:00,68.2,38.6,29.63,WSW,248,9.6,9.6,34,0.00,,,0.00,WUHU216HW,2013-05-16 14:59:00,
2013-05-16 11:04:00,67.1,40.6,29.62,West,270,6.0,9.6,38,0.00,,,0.00,WUHU216HW,2013-05-16 15:04:00,
2013-05-16 11:09:00,66.6,38.6,29.63,WSW,248,8.5,11.9,36,0.00,,,0.00,WUHU216HW,2013-05-16 15:09:00,
2013-05-16 11:14:00,67.3,37.8,29.62,West,270,11.2,14.3,34,0.00,,,0.00,WUHU216HW,2013-05-16 15:14:00,
2013-05-16 11:19:00,68.0,37.7,29.63,West,270,9.8,14.3,33,0.00,,,0.00,WUHU216HW,2013-05-16 15:19:00,
2013-05-16 11:24:00,67.5,38.0,29.62,WSW,248,8.7,9.8,34,0.00,,,0.00,WUHU216HW,2013-05-16 15:24:00,
2013-05-16 11:29:00,68.4,37.3,29.62,West,270,21.3,21.3,32,0.00,,,0.00,WUHU216HW,2013-05-16 15:29:00,
2013-05-16 11:34:00,68.6,37.5,29.62,WSW,248,25.1,25.1,32,0.00,,,0.00,WUHU216HW,2013-05-16 15:34:00,
2013-05-16 11:39:00,68.8,37.6,29.62,WSW,248,20.6,31.8,32,0.00,,,0.00,WUHU216HW,2013-05-16 15:39:00,
2013-05-16 11:44:00,68.4,38.7,29.62,WSW,248,9.8,31.8,34,0.00,,,0.00,WUHU216HW,2013-05-16 15:44:00,
2013-05-16 11:49:00,68.8,38.4,29.61,WSW,248,9.6,18.3,33,0.00,,,0.00,WUHU216HW,2013-05-16 15:49:00,
2013-05-16 11:54:00,67.9,37.5,29.61,West,270,19.2,19.2,33,0.00,,,0.00,WUHU216HW,2013-05-16 15:54:00,
2013-05-16 11:59:00,68.4,38.0,29.61,WSW,248,14.5,21.9,33,0.00,,,0.00,WUHU216HW,2013-05-16 15:59:00,
2013-05-16 12:04:00,69.7,38.4,29.61,WSW,248,15.0,21.9,32,0.00,,,0.00,WUHU216HW,2013-05-16 16:04:00,
2013-05-16 12:09:00,69.8,37.8,29.61,WSW,248,23.9,23.9,31,0.00,,,0.00,WUHU216HW,2013-05-16 16:09:00,
2013-05-16 12:14:00,69.5,37.5,29.61,WSW,248,20.4,23.9,31,0.00,,,0.00,WUHU216HW,2013-05-16 16:14:00,
2013-05-16 12:19:00,69.5,37.5,29.61,WSW,248,28.9,28.9,31,0.00,,,0.00,WUHU216HW,2013-05-16 16:19:00,
2013-05-16 12:24:00,69.7,38.4,29.61,WSW,248,14.3,28.9,32,0.00,,,0.00,WUHU216HW,2013-05-16 16:24:00,
2013-05-16 12:29:00,70.2,38.2,29.61,WSW,248,15.2,22.4,31,0.00,,,0.00,WUHU216HW,2013-05-16 16:29:00,
2013-05-16 12:34:00,70.4,38.4,29.61,West,270,20.4,20.4,31,0.00,,,0.00,WUHU216HW,2013-05-16 16:34:00,
2013-05-16 12:39:00,69.3,37.4,29.60,WSW,248,16.6,22.4,31,0.00,,,0.00,WUHU216HW,2013-05-16 16:39:00,
2013-05-16 12:44:00,69.8,37.8,29.60,WSW,248,11.4,22.4,31,0.00,,,0.00,WUHU216HW,2013-05-16 16:44:00,
2013-05-16 12:49:00,70.2,37.5,29.61,West,270,13.6,16.3,30,0.00,,,0.00,WUHU216HW,2013-05-16 16:49:00,
2013-05-16 12:54:00,70.0,37.3,29.61,WSW,248,18.1,18.1,30,0.00,,,0.00,WUHU216HW,2013-05-16 16:54:00,
2013-05-16 12:59:00,69.8,37.1,29.61,WSW,248,13.2,18.1,30,0.00,,,0.00,WUHU216HW,2013-05-16 16:59:00,
2013-05-16 13:04:00,70.4,36.5,29.60,WSW,248,22.8,22.8,29,0.00,,,0.00,WUHU216HW,2013-05-16 17:04:00,
2013-05-16 13:09:00,70.2,37.5,29.60,West,270,23.7,25.5,30,0.00,,,0.00,WUHU216HW,2013-05-16 17:09:00,
2013-05-16 13:14:00,69.1,38.6,29.60,WSW,248,11.6,25.5,33,0.00,,,0.00,WUHU216HW,2013-05-16 17:14:00,
2013-05-16 13:19:00,68.8,38.4,29.61,WSW,248,8.1,22.4,33,0.00,,,0.00,WUHU216HW,2013-05-16 17:19:00,
2013-05-16 13:24:00,70.0,37.3,29.60,West,270,13.4,14.3,30,0.00,,,0.00,WUHU216HW,2013-05-16 17:24:00,
2013-05-16 13:29:00,70.0,37.3,29.60,WSW,248,16.8,17.2,30,0.00,,,0.00,WUHU216HW,2013-05-16 17:29:00,
2013-05-16 13:34:00,70.7,37.9,29.60,WSW,248,9.6,20.4,30,0.00,,,0.00,WUHU216HW,2013-05-16 17:34:00,
2013-05-16 13:39:00,71.5,37.5,29.61,WSW,248,19.5,20.4,29,0.00,,,0.00,WUHU216HW,2013-05-16 17:39:00,
2013-05-16 13:44:00,71.6,38.7,29.60,West,270,13.0,25.9,30,0.00,,,0.00,WUHU216HW,2013-05-16 17:44:00,
2013-05-16 13:49:00,70.9,38.1,29.60,WSW,248,7.8,25.9,30,0.00,,,0.00,WUHU216HW,2013-05-16 17:49:00,
2013-05-16 13:54:00,70.9,37.0,29.60,SW,225,15.0,18.1,29,0.00,,,0.00,WUHU216HW,2013-05-16 17:54:00,
2013-05-16 13:59:00,71.6,37.7,29.60,WSW,248,17.9,18.1,29,0.00,,,0.00,WUHU216HW,2013-05-16 17:59:00,
2013-05-16 14:04:00,71.5,37.5,29.60,WSW,248,20.1,21.5,29,0.00,,,0.00,WUHU216HW,2013-05-16 18:04:00,
2013-05-16 14:09:00,71.6,34.6,29.60,WSW,248,21.3,25.9,26,0.00,,,0.00,WUHU216HW,2013-05-16 18:09:00,
2013-05-16 14:14:00,71.6,39.4,29.61,West,270,13.6,25.9,31,0.00,,,0.00,WUHU216HW,2013-05-16 18:14:00,
2013-05-16 14:19:00,71.1,37.2,29.60,West,270,16.3,16.3,29,0.00,,,0.00,WUHU216HW,2013-05-16 18:19:00,
2013-05-16 14:24:00,70.9,38.1,29.60,West,270,23.0,23.0,30,0.00,,,0.00,WUHU216HW,2013-05-16 18:24:00,
2013-05-16 14:29:00,69.8,37.1,29.60,WSW,248,16.3,23.0,30,0.00,,,0.00,WUHU216HW,2013-05-16 18:29:00,
2013-05-16 14:34:00,71.6,36.6,29.60,WSW,248,10.3,20.1,28,0.00,,,0.00,WUHU216HW,2013-05-16 18:34:00,
2013-05-16 14:39:00,73.4,36.1,29.60,WSW,248,13.9,17.0,26,0.00,,,0.00,WUHU216HW,2013-05-16 18:39:00,
2013-05-16 14:44:00,73.3,40.0,29.60,WSW,248,14.3,17.0,30,0.00,,,0.00,WUHU216HW,2013-05-16 18:44:00,
2013-05-16 14:49:00,71.6,36.6,29.60,WSW,248,6.3,15.7,28,0.00,,,0.00,WUHU216HW,2013-05-16 18:49:00,
2013-05-16 14:54:00,71.8,38.9,29.60,WSW,248,12.1,14.8,30,0.00,,,0.00,WUHU216HW,2013-05-16 18:54:00,
2013-05-16 14:59:00,71.3,39.9,29.60,WSW,248,12.3,15.7,32,0.00,,,0.00,WUHU216HW,2013-05-16 18:59:00,
2013-05-16 15:04:00,69.8,37.8,29.60,WSW,248,15.0,17.2,31,0.00,,,0.00,WUHU216HW,2013-05-16 19:04:00,
2013-05-16 15:09:00,69.3,38.1,29.60,West,270,17.9,17.9,32,0.00,,,0.00,WUHU216HW,2013-05-16 19:09:00,
2013-05-16 15:14:00,69.3,38.8,29.61,West,270,11.4,19.9,33,0.00,,,0.00,WUHU216HW,2013-05-16 19:14:00,
2013-05-16 15:19:00,68.0,37.7,29.61,WSW,248,7.6,19.9,33,0.00,,,0.00,WUHU216HW,2013-05-16 19:19:00,
2013-05-16 15:24:00,67.9,36.8,29.61,WSW,248,11.4,11.4,32,0.00,,,0.00,WUHU216HW,2013-05-16 19:24:00,
2013-05-16 15:29:00,68.9,37.7,29.61,West,270,16.3,21.7,32,0.00,,,0.00,WUHU216HW,2013-05-16 19:29:00,
2013-05-16 15:34:00,68.8,38.4,29.61,WSW,248,13.2,21.7,33,0.00,,,0.00,WUHU216HW,2013-05-16 19:34:00,
2013-05-16 15:39:00,67.7,38.1,29.61,West,270,11.2,17.7,34,0.00,,,0.00,WUHU216HW,2013-05-16 19:39:00,
2013-05-16 15:44:00,67.1,37.6,29.62,West,270,14.3,16.1,34,0.00,,,0.00,WUHU216HW,2013-05-16 19:44:00,
2013-05-16 15:49:00,67.1,37.6,29.61,West,270,10.3,14.3,34,0.00,,,0.00,WUHU216HW,2013-05-16 19:49:00,
2013-05-16 15:54:00,66.6,37.2,29.62,West,270,9.6,12.3,34,0.00,,,0.00,WUHU216HW,2013-05-16 19:54:00,
2013-05-16 15:59:00,67.5,37.3,29.62,West,270,20.1,20.1,33,0.00,,,0.00,WUHU216HW,2013-05-16 19:59:00,
2013-05-16 16:04:00,68.6,38.2,29.62,West,270,21.7,22.4,33,0.00,,,0.00,WUHU216HW,2013-05-16 20:04:00,
2013-05-16 16:09:00,68.4,37.3,29.62,WNW,293,19.9,22.4,32,0.00,,,0.00,WUHU216HW,2013-05-16 20:09:00,
2013-05-16 16:14:00,67.5,38.0,29.62,West,270,15.7,21.0,34,0.00,,,0.00,WUHU216HW,2013-05-16 20:14:00,
2013-05-16 16:19:00,66.8,38.1,29.63,West,270,17.0,20.1,35,0.00,,,0.00,WUHU216HW,2013-05-16 20:19:00,
2013-05-16 16:24:00,66.2,39.1,29.63,WNW,293,9.2,17.2,37,0.00,,,0.00,WUHU216HW,2013-05-16 20:24:00,
2013-05-16 16:29:00,65.9,38.0,29.64,WNW,293,10.3,15.7,36,0.00,,,0.00,WUHU216HW,2013-05-16 20:29:00,
2013-05-16 16:34:00,65.9,38.7,29.64,WNW,293,8.1,10.5,37,0.00,,,0.00,WUHU216HW,2013-05-16 20:34:00,
2013-05-16 16:39:00,65.0,38.6,29.64,NNW,338,6.5,8.5,38,0.00,,,0.00,WUHU216HW,2013-05-16 20:39:00,
2013-05-16 16:44:00,64.6,39.1,29.64,NW,315,4.7,8.5,39,0.00,,,0.00,WUHU216HW,2013-05-16 20:44:00,
2013-05-16 16:49:00,64.4,39.6,29.65,NW,315,4.0,5.8,40,0.00,,,0.00,WUHU216HW,2013-05-16 20:49:00,
2013-05-16 16:54:00,63.5,41.1,29.66,NW,315,5.1,7.8,44,0.00,,,0.00,WUHU216HW,2013-05-16 20:54:00,
2013-05-16 16:59:00,62.5,41.3,29.66,WNW,293,5.8,7.8,46,0.00,,,0.00,WUHU216HW,2013-05-16 20:59:00,
2013-05-16 17:04:00,62.3,41.7,29.67,NW,315,4.3,5.8,47,0.00,,,0.00,WUHU216HW,2013-05-16 21:04:00,
2013-05-16 17:09:00,62.1,41.5,29.67,WNW,293,4.7,4.7,47,0.00,,,0.00,WUHU216HW,2013-05-16 21:09:00,
2013-05-16 17:14:00,61.9,42.5,29.67,SSW,203,3.6,4.7,49,0.00,,,0.00,WUHU216HW,2013-05-16 21:14:00,
2013-05-16 17:19:00,61.7,42.4,29.67,NW,315,2.5,5.1,49,0.00,,,0.00,WUHU216HW,2013-05-16 21:19:00,
2013-05-16 17:24:00,61.6,42.8,29.68,West,270,4.0,6.0,50,0.00,,,0.00,WUHU216HW,2013-05-16 21:24:00,
2013-05-16 17:29:00,61.0,43.3,29.68,WSW,248,1.8,6.0,52,0.00,,,0.00,WUHU216HW,2013-05-16 21:29:00,
2013-05-16 17:34:00,60.7,42.9,29.69,WNW,293,2.0,4.7,52,0.00,,,0.00,WUHU216HW,2013-05-16 21:34:00,
2013-05-16 17:39:00,60.3,43.6,29.69,WNW,293,8.3,8.3,54,0.00,,,0.00,WUHU216HW,2013-05-16 21:39:00,
2013-05-16 17:44:00,57.2,42.1,29.70,WNW,293,6.9,8.3,57,0.00,,,0.00,WUHU216HW,2013-05-16 21:44:00,
2013-05-16 17:49:00,56.2,42.9,29.70,NW,315,6.5,8.1,61,0.00,,,0.00,WUHU216HW,2013-05-16 21:49:00,
2013-05-16 17:54:00,56.2,42.9,29.71,NW,315,6.3,7.6,61,0.00,,,0.00,WUHU216HW,2013-05-16 21:54:00,
2013-05-16 17:59:00,56.2,42.9,29.71,NW,315,4.7,6.3,61,0.00,,,0.00,WUHU216HW,2013-05-16 21:59:00,
2013-05-16 18:04:00,56.9,43.2,29.71,NW,315,4.0,5.6,60,0.00,,,0.00,WUHU216HW,2013-05-16 22:04:00,
2013-05-16 18:09:00,57.6,43.4,29.71,NNW,338,3.8,5.1,59,0.00,,,0.00,WUHU216HW,2013-05-16 22:09:00,
2013-05-16 18:14:00,58.0,43.7,29.72,WNW,293,3.6,5.8,59,0.00,,,0.00,WUHU216HW,2013-05-16 22:14:00,
2013-05-16 18:19:00,58.5,44.2,29.72,NW,315,3.4,5.8,59,0.00,,,0.00,WUHU216HW,2013-05-16 22:19:00,
2013-05-16 18:24:00,58.9,44.1,29.72,WNW,293,3.8,5.6,58,0.00,,,0.00,WUHU216HW,2013-05-16 22:24:00,
2013-05-16 18:29:00,59.0,44.3,29.72,NW,315,6.3,6.3,58,0.00,,,0.00,WUHU216HW,2013-05-16 22:29:00,
2013-05-16 18:34:00,59.4,44.7,29.73,WNW,293,4.7,6.3,58,0.00,,,0.00,WUHU216HW,2013-05-16 22:34:00,
2013-05-16 18:39:00,59.4,44.1,29.73,NW,315,3.8,5.6,57,0.00,,,0.00,WUHU216HW,2013-05-16 22:39:00,
2013-05-16 18:44:00,60.3,45.5,29.73,WNW,293,3.8,5.6,58,0.00,,,0.00,WUHU216HW,2013-05-16 22:44:00,
2013-05-16 18:49:00,62.1,46.6,29.73,WNW,293,4.0,4.7,57,0.00,,,0.00,WUHU216HW,2013-05-16 22:49:00,
2013-05-16 18:54:00,64.4,47.4,29.74,NW,315,2.5,4.7,54,0.00,,,0.00,WUHU216HW,2013-05-16 22:54:00,
2013-05-16 18:59:00,67.3,47.5,29.74,NNW,338,1.8,3.8,49,0.00,,,0.00,WUHU216HW,2013-05-16 22:59:00,
2013-05-16 19:04:00,67.1,46.8,29.74,NW,315,0.9,4.9,48,0.00,,,0.00,WUHU216HW,2013-05-16 23:04:00,
2013-05-16 19:09:00,65.2,45.6,29.74,WNW,293,2.7,4.9,49,0.00,,,0.00,WUHU216HW,2013-05-16 23:09:00,
2013-05-16 19:14:00,63.0,44.6,29.75,NW,315,1.8,4.5,51,0.00,,,0.00,WUHU216HW,2013-05-16 23:14:00,
2013-05-16 19:19:00,61.2,43.9,29.75,North,0,1.1,3.6,53,0.00,,,0.00,WUHU216HW,2013-05-16 23:19:00,
2013-05-16 19:24:00,60.1,43.4,29.76,West,270,2.9,3.6,54,0.00,,,0.00,WUHU216HW,2013-05-16 23:24:00,
2013-05-16 19:29:00,61.0,44.7,29.76,NNW,338,1.3,3.1,55,0.00,,,0.00,WUHU216HW,2013-05-16 23:29:00,
2013-05-16 19:34:00,62.8,45.4,29.76,WNW,293,2.5,4.5,53,0.00,,,0.00,WUHU216HW,2013-05-16 23:34:00,
2013-05-16 19:39:00,62.8,43.9,29.76,WSW,248,5.4,5.4,50,0.00,,,0.00,WUHU216HW,2013-05-16 23:39:00,
2013-05-16 19:44:00,61.7,42.9,29.77,West,270,3.4,5.4,50,0.00,,,0.00,WUHU216HW,2013-05-16 23:44:00,
2013-05-16 19:49:00,60.7,42.5,29.77,NW,315,4.5,5.4,51,0.00,,,0.00,WUHU216HW,2013-05-16 23:49:00,
2013-05-16 19:54:00,59.8,42.6,29.78,NW,315,6.0,6.0,53,0.00,,,0.00,WUHU216HW,2013-05-16 23:54:00,
2013-05-16 19:59:00,59.0,42.4,29.78,WNW,293,2.5,6.0,54,0.00,,,0.00,WUHU216HW,2013-05-16 23:59:00,
2013-05-16 20:04:00,58.7,42.5,29.78,West,270,1.3,3.8,55,0.00,,,0.00,WUHU216HW,2013-05-17 00:04:00,
2013-05-16 20:09:00,58.3,42.2,29.79,NW,315,3.4,3.6,55,0.00,,,0.00,WUHU216HW,2013-05-17 00:09:00,
2013-05-16 20:14:00,58.1,42.0,29.79,NW,315,2.5,8.3,55,0.00,,,0.00,WUHU216HW,2013-05-17 00:14:00,
2013-05-16 20:19:00,58.1,42.0,29.79,NE,45,1.6,8.3,55,0.00,,,0.00,WUHU216HW,2013-05-17 00:19:00,
2013-05-16 20:24:00,58.0,41.9,29.79,NE,45,4.9,5.6,55,0.00,,,0.00,WUHU216HW,2013-05-17 00:24:00,
2013-05-16 20:29:00,58.0,41.9,29.79,NW,315,2.9,4.9,55,0.00,,,0.00,WUHU216HW,2013-05-17 00:29:00,
2013-05-16 20:34:00,57.8,41.7,29.80,NNW,338,1.1,3.1,55,0.00,,,0.00,WUHU216HW,2013-05-17 00:34:00,
2013-05-16 20:39:00,57.8,41.7,29.80,ESE,113,2.5,4.0,55,0.00,,,0.00,WUHU216HW,2013-05-17 00:39:00,
2013-05-16 20:44:00,57.6,41.0,29.80,NNW,338,1.6,4.0,54,0.00,,,0.00,WUHU216HW,2013-05-17 00:44:00,
2013-05-16 20:49:00,57.6,41.0,29.80,NE,45,2.0,4.0,54,0.00,,,0.00,WUHU216HW,2013-05-17 00:49:00,
2013-05-16 20:54:00,57.4,41.0,29.81,NW,315,1.8,2.2,54,0.00,,,0.00,WUHU216HW,2013-05-17 00:54:00,
2013-05-16 20:59:00,57.4,41.0,29.81,NNW,338,0.4,2.2,54,0.00,,,0.00,WUHU216HW,2013-05-17 00:59:00,
2013-05-16 21:04:00,57.2,40.8,29.82,NNW,338,1.3,2.5,54,0.00,,,0.00,WUHU216HW,2013-05-17 01:04:00,
2013-05-16 21:09:00,57.2,40.8,29.82,WNW,293,0.0,2.5,54,0.00,,,0.00,WUHU216HW,2013-05-17 01:09:00,
2013-05-16 21:14:00,57.2,40.8,29.82,WNW,293,1.6,2.2,54,0.00,,,0.00,WUHU216HW,2013-05-17 01:14:00,
2013-05-16 21:19:00,57.1,40.6,29.82,NNW,338,0.4,2.2,54,0.00,,,0.00,WUHU216HW,2013-05-17 01:19:00,
2013-05-16 21:24:00,56.9,40.4,29.83,East,90,1.6,1.8,54,0.00,,,0.00,WUHU216HW,2013-05-17 01:24:00,
2013-05-16 21:29:00,56.9,40.4,29.83,NW,315,1.1,2.2,54,0.00,,,0.00,WUHU216HW,2013-05-17 01:29:00,
2013-05-16 21:34:00,56.9,40.4,29.84,NW,315,1.1,2.2,54,0.00,,,0.00,WUHU216HW,2013-05-17 01:34:00,
2013-05-16 21:39:00,56.9,40.4,29.84,NW,315,2.0,3.1,54,0.00,,,0.00,WUHU216HW,2013-05-17 01:39:00,
2013-05-16 21:44:00,56.5,40.1,29.84,WNW,293,3.1,4.0,54,0.00,,,0.00,WUHU216HW,2013-05-17 01:44:00,
2013-05-16 21:49:00,56.0,40.0,29.84,WNW,293,1.3,4.0,55,0.00,,,0.00,WUHU216HW,2013-05-17 01:49:00,
2013-05-16 21:54:00,55.6,40.5,29.84,West,270,1.1,1.8,57,0.00,,,0.00,WUHU216HW,2013-05-17 01:54:00,
2013-05-16 21:59:00,55.3,40.7,29.84,WNW,293,1.8,1.8,58,0.00,,,0.00,WUHU216HW,2013-05-17 01:59:00,
2013-05-16 22:04:00,55.1,40.5,29.85,NW,315,1.1,1.8,58,0.00,,,0.00,WUHU216HW,2013-05-17 02:04:00,
2013-05-16 22:09:00,55.1,40.1,29.85,SE,135,0.0,2.0,57,0.00,,,0.00,WUHU216HW,2013-05-17 02:09:00,
2013-05-16 22:14:00,55.4,40.3,29.85,WNW,293,1.8,2.0,57,0.00,,,0.00,WUHU216HW,2013-05-17 02:14:00,
2013-05-16 22:19:00,55.8,40.2,29.85,NE,45,1.8,3.6,56,0.00,,,0.00,WUHU216HW,2013-05-17 02:19:00,
2013-05-16 22:24:00,55.8,39.8,29.85,NE,45,2.5,3.8,55,0.00,,,0.00,WUHU216HW,2013-05-17 02:24:00,
2013-05-16 22:29:00,56.0,40.0,29.85,NNE,23,1.8,3.8,55,0.00,,,0.00,WUHU216HW,2013-05-17 02:29:00,
2013-05-16 22:34:00,56.0,39.5,29.85,NNW,338,1.6,2.7,54,0.00,,,0.00,WUHU216HW,2013-05-17 02:34:00,
2013-05-16 22:39:00,55.8,39.3,29.86,WNW,293,0.9,4.3,54,0.00,,,0.00,WUHU216HW,2013-05-17 02:39:00,
2013-05-16 22:44:00,55.8,39.3,29.86,NW,315,1.8,4.3,54,0.00,,,0.00,WUHU216HW,2013-05-17 02:44:00,
2013-05-16 22:49:00,55.8,39.3,29.86,NNW,338,1.3,3.1,54,0.00,,,0.00,WUHU216HW,2013-05-17 02:49:00,
2013-05-16 22:54:00,55.8,39.3,29.86,NNW,338,3.4,3.6,54,0.00,,,0.00,WUHU216HW,2013-05-17 02:54:00,
2013-05-16 22:59:00,55.6,39.2,29.86,NNW,338,1.3,3.6,54,0.00,,,0.00,WUHU216HW,2013-05-17 02:59:00,
2013-05-16 23:04:00,55.4,39.0,29.87,North,0,3.1,3.1,54,0.00,,,0.00,WUHU216HW,2013-05-17 03:04:00,
2013-05-16 23:09:00,55.3,39.2,29.87,SW,225,0.7,4.3,55,0.00,,,0.00,WUHU216HW,2013-05-17 03:09:00,
2013-05-16 23:14:00,55.1,39.1,29.87,NNW,338,1.6,4.3,55,0.00,,,0.00,WUHU216HW,2013-05-17 03:14:00,
2013-05-16 23:19:00,54.9,39.4,29.87,NE,45,2.2,2.9,56,0.00,,,0.00,WUHU216HW,2013-05-17 03:19:00,
2013-05-16 23:24:00,54.5,39.5,29.87,NNW,338,3.6,3.6,57,0.00,,,0.00,WUHU216HW,2013-05-17 03:24:00,
2013-05-16 23:29:00,54.4,39.4,29.87,NNW,338,2.2,3.6,57,0.00,,,0.00,WUHU216HW,2013-05-17 03:29:00,
2013-05-16 23:34:00,54.2,39.3,29.87,NNE,23,1.8,5.1,57,0.00,,,0.00,WUHU216HW,2013-05-17 03:34:00,
2013-05-16 23:39:00,53.8,39.3,29.87,WNW,293,2.5,5.1,58,0.00,,,0.00,WUHU216HW,2013-05-17 03:39:00,
2013-05-16 23:44:00,53.6,39.3,29.88,NNW,338,1.1,3.4,58,0.00,,,0.00,WUHU216HW,2013-05-17 03:44:00,
2013-05-16 23:49:00,53.3,39.3,29.88,NNW,338,6.7,6.7,59,0.00,,,0.00,WUHU216HW,2013-05-17 03:49:00,
2013-05-16 23:54:00,52.9,39.4,29.88,NNW,338,2.2,6.7,60,0.00,,,0.00,WUHU216HW,2013-05-17 03:54:00,
2013-05-16 23:59:00,52.6,39.1,29.88,NW,315,2.5,6.7,60,0.00,,,0.00,WUHU216HW,2013-05-17 03:59:00,